Wetbulb
58.83 57.60 56.68 56.40 55.99 56.09 56.15 55.64 55.67 54.92 53.79 53.21 52.47 51.59 50.93 51.25 52.52 53.89 57.31 57.49 59.42 58.94 59.64 59.37 57.82 56.91 55.89 54.81 54.51 54.40 54.71 53.69 53.64 53.37 53.51 53.69 53.12 52.40 52.02 51.86 51.69 51.66 51.73
57.42 56.48 56.15 56.00 55.63 56.07 55.89 55.52 55.12 54.35 52.89 52.54 50.84 50.07 49.57 49.73 50.89 53.13 55.59 56.43 56.17 56.95 57.21 56.61 56.00 56.10 55.66 54.11 52.90 52.83 52.60 52.16 52.04 51.95 51.71 51.62 51.14 50.88 50.22 50.27 50.11 50.34 50.87
57.62 56.94 55.95 55.58 55.31 55.60 55.19 54.87 54.68 54.11 51.96 50.99 49.35 48.92 48.94 48.88 49.21 50.99 53.50 54.11 53.45 52.68 54.85 54.70 53.80 52.80 52.35 51.90 51.20 50.71 50.76 50.65 50.70 50.95 51.11 51.15 50.79 50.06 49.64 49.20 49.06 49.36 49.65
57.14 56.73 55.99 55.39 55.23 55.25 55.17 55.00 54.24 52.43 51.38 50.62 49.12 48.55 48.07 48.00 48.40 48.63 49.22 50.19 49.62 50.20 50.75 50.08 50.43 50.23 49.87 49.79 49.87 49.91 50.28 50.29 50.32 50.35 50.13 49.76 49.27 48.64 48.36 48.01 47.86 48.02 48.44
56.37 56.86 56.08 54.97 55.37 54.42 54.34 53.65 53.04 53.08 50.84 49.58 48.18 47.45 46.96 46.95 46.90 46.48 46.34 46.61 46.81 47.16 47.45 46.86 47.55 48.07 47.91 47.78 47.88 48.10 48.75 49.23 49.52 49.84 49.88 49.28 48.88 48.21 47.99 47.78 47.55 47.63 47.76
55.91 56.19 55.07 54.44 54.11 53.11 52.47 51.89 51.35 50.86 50.95 49.81 46.63 45.43 45.88 46.22 46.11 46.19 45.72 45.32 45.77 45.65 46.11 45.89 46.64 45.91 45.00 45.11 45.18 45.96 47.22 48.11 48.58 48.73 49.05 48.99 48.92 48.23 47.51 47.17 47.25 47.60 47.82
55.28 55.33 53.91 53.16 53.04 52.60 51.74 51.15 50.17 49.34 48.19 48.88 46.65 45.70 45.02 44.97 44.48 44.67 45.72 46.00 44.52 44.85 45.46 45.41 45.78 45.63 45.05 42.65 44.14 44.50 45.26 46.10 46.81 46.79 46.96 46.83 46.91 46.87 46.83 46.74 47.14 47.27 47.29
54.38 53.70 53.10 52.17 52.13 50.92 50.66 50.54 49.94 48.44 47.50 47.70 46.89 46.52 43.19 43.21 43.86 43.48 43.85 43.75 44.35 45.02 44.57 44.07 44.34 44.26 44.90 44.35 43.41 42.84 43.49 44.12 44.86 45.29 45.73 45.84 46.05 46.29 46.43 46.47 46.62 46.84 46.95
53.08 51.84 51.33 50.86 49.62 48.99 47.97 49.03 49.35 48.63 45.55 45.31 45.99 46.61 41.97 41.22 43.17 43.68 42.40 43.02 43.32 44.15 44.54 44.18 43.40 42.82 43.70 43.25 42.00 41.84 41.44 42.74 43.51 44.18 44.51 44.89 45.25 45.65 45.92 46.02 46.11 46.21 46.48
49.91 49.03 48.67 48.77 48.36 48.23 48.15 48.54 48.56 48.35 47.36 44.56 44.90 44.52 45.34 44.85 40.60 38.82 42.25 42.68 42.93 42.46 43.19 43.61 43.39 43.04 42.87 42.64 40.53 39.89 41.42 40.95 41.42 42.63 43.29 43.47 43.98 44.35 44.79 45.05 45.24 45.68 45.99
48.44 47.83 48.42 48.52 48.42 48.68 48.88 48.17 46.49 47.16 47.03 43.82 45.50 44.60 44.05 43.20 42.52 39.16 36.36 39.36 41.87 42.76 42.91 42.61 42.60 42.30 41.75 41.47 41.51 40.51 39.04 38.95 39.39 40.78 41.55 42.36 42.80 43.24 43.63 43.94 44.25 44.72 44.76
47.11 47.41 47.50 48.42 48.74 48.48 46.78 45.72 46.43 45.44 44.26 45.79 45.50 44.28 42.76 41.13 40.40 39.32 37.35 37.92 37.59 40.27 41.75 41.98 41.91 41.84 41.77 41.08 37.93 36.70 37.31 37.20 37.16 37.74 38.68 39.74 40.52 41.35 41.85 42.33 42.99 43.27 43.38
46.09 46.47 47.92 47.71 47.86 48.23 47.93 47.14 45.41 45.40 46.16 45.16 44.79 43.92 43.91 42.90 42.90 41.09 39.09 37.84 36.76 39.50 39.42 41.10 41.53 41.56 40.09 40.00 38.78 35.85 36.30 34.63 34.69 35.37 36.09 37.15 37.99 38.58 39.25 40.01 40.97 41.80 42.43
46.51 46.82 47.45 47.66 47.11 46.44 47.73 47.59 45.66 46.53 46.20 45.32 44.61 44.09 43.96 43.59 42.76 41.73 40.00 38.01 35.71 36.66 37.65 37.36 40.80 40.26 39.80 38.80 36.59 34.52 35.71 33.59 33.44 33.80 34.87 35.56 35.96 36.60 37.12 37.74 38.81 39.86 40.94
46.03 45.68 46.54 46.35 45.24 47.11 45.85 46.92 46.53 45.95 45.64 45.55 45.19 44.68 43.83 44.10 43.02 42.38 41.35 39.88 37.33 33.05 34.02 37.37 36.23 38.98 38.51 37.68 35.93 35.71 35.07 33.40 33.11 33.47 33.40 33.86 34.84 35.62 36.05 36.54 37.47 37.77 38.44
45.40 45.39 45.62 43.60 45.31 45.75 46.01 45.15 44.68 45.78 44.83 45.17 44.55 43.67 43.21 42.91 42.06 41.62 40.73 40.03 39.13 36.70 32.43 36.90 36.39 36.77 36.62 35.05 35.08 34.57 33.61 32.60 32.60 32.17 32.53 32.91 33.44 34.44 34.71 35.25 35.73 35.78 36.32
43.67 43.74 42.05 44.52 43.64 42.89 44.21 44.22 44.17 43.80 43.60 43.60 42.63 41.99 41.65 41.83 41.35 41.01 40.84 39.97 38.50 37.26 33.49 35.27 35.71 35.64 34.33 33.95 34.01 33.75 33.17 32.98 33.70 32.25 31.76 31.98 32.32 32.99 33.01 33.14 33.51 33.88 34.45
43.82 42.65 43.29 42.56 43.29 42.45 43.23 42.99 42.51 41.92 41.65 41.25 41.57 41.21 41.00 40.56 40.77 41.23 40.00 38.61 37.68 37.53 34.50 32.01 34.36 33.07 32.56 33.49 32.47 31.36 31.31 32.15 32.43 31.51 31.09 31.53 31.78 32.01 32.32 32.70 32.96 33.28 33.62
42.49 43.18 43.64 43.22 42.90 42.85 42.92 42.19 41.27 41.40 41.03 41.33 41.58 41.06 40.93 40.73 40.12 39.89 38.98 37.91 37.25 35.03 34.27 32.15 31.58 32.76 32.08 32.28 30.85 31.04 31.18 31.38 31.43 30.92 30.69 30.69 31.16 31.78 32.10 32.39 32.75 33.07 33.29
41.94 43.00 43.26 43.31 42.56 42.13 41.54 41.00 41.50 41.63 41.06 41.13 41.05 40.63 40.55 39.95 39.79 39.75 38.53 37.27 35.83 33.92 33.32 31.58 30.78 30.44 30.84 31.10 29.72 28.31 28.05 30.33 29.67 30.91 31.05 31.01 31.10 31.64 31.84 32.12 32.28 32.55 32.96
41.23 41.19 40.55 41.71 41.87 41.17 42.15 41.44 41.07 41.13 40.92 40.68 40.59 40.00 40.06 39.93 38.52 38.80 37.18 36.97 34.77 32.99 32.11 30.95 29.73 29.45 29.08 28.57 26.80 28.39 26.90 28.17 29.50 31.07 30.72 31.50 32.04 32.59 33.62 32.87 32.94 32.50 32.35
39.95 41.57 40.27 41.68 43.29 42.55 38.64 37.88 38.17 40.57 40.01 39.52 39.31 40.07 39.85 37.13 37.19 35.29 33.98 33.15 34.16 33.24 31.30 30.38 29.24 27.88 28.17 27.95 28.16 27.21 26.62 25.39 23.99 31.69 28.92 28.49 31.86 31.29 32.91 34.03 32.20 31.79 32.12
40.49 41.60 42.48 42.35 41.78 42.59 37.51 37.23 36.57 39.28 39.29 39.58 39.56 39.39 38.46 36.63 35.70 36.72 34.42 33.71 31.41 29.83 30.43 31.89 28.67 28.66 28.00 28.06 27.94 26.60 26.79 26.24 25.86 28.43 28.03 26.17 30.84 30.19 33.08 32.91 32.64 32.02 32.10
41.75 41.50 40.96 41.95 41.76 38.93 36.32 36.30 35.51 38.62 39.01 39.12 39.11 38.90 38.49 37.72 35.95 35.44 34.36 33.76 33.51 32.99 31.77 30.23 30.72 30.59 30.15 29.56 29.03 28.01 27.14 27.32 28.09 28.96 29.61 23.71 29.75 29.18 31.85 33.08 32.98 32.29 32.18
40.95 41.57 42.12 40.25 37.69 37.87 37.43 35.44 35.10 37.63 37.41 37.52 37.89 37.45 37.25 37.18 35.17 32.41 32.51 31.55 31.51 31.36 30.32 29.37 29.14 29.39 27.86 27.81 29.19 29.32 26.50 25.42 23.79 25.78 29.21 26.98 28.10 27.74 30.04 31.41 34.07 31.94 31.93
41.38 40.00 37.63 37.58 37.36 39.76 36.14 34.60 34.97 37.10 36.01 36.02 36.79 35.54 32.74 35.04 33.29 31.72 32.54 31.47 29.20 30.70 30.68 29.52 29.92 29.38 29.27 30.05 29.01 29.73 28.66 24.87 24.15 23.34 29.00 24.74 25.71 26.14 24.76 31.16 32.00 33.75 34.29
MSLP
1024.28 1024.46 1024.81 1024.93 1025.18 1025.56 1025.71 1025.84 1026.07 1026.21 1026.65 1026.75 1026.89 1027.14 1027.36 1027.30 1027.20 1027.02 1027.03 1026.91 1026.52 1026.32 1026.09 1026.25 1026.38 1026.75 1026.80 1026.96 1026.99 1027.02 1027.14 1027.08 1027.02 1026.89 1026.81 1026.97 1026.94 1026.88 1026.78 1026.63 1026.48 1026.26 1025.94
1024.18 1024.66 1024.87 1024.95 1025.36 1025.70 1025.77 1026.01 1026.15 1026.57 1026.85 1027.16 1027.49 1027.63 1027.79 1027.73 1027.56 1027.44 1027.40 1027.26 1027.23 1026.96 1026.76 1026.65 1026.74 1026.83 1027.05 1027.16 1027.19 1027.15 1027.26 1027.25 1027.18 1027.07 1026.96 1026.94 1026.87 1026.85 1026.78 1026.68 1026.61 1026.39 1026.07
1024.40 1024.61 1024.85 1025.08 1025.61 1026.03 1025.97 1026.30 1026.68 1026.98 1027.24 1027.53 1027.91 1028.06 1028.03 1028.18 1028.00 1027.95 1027.85 1027.62 1027.57 1027.74 1027.50 1027.41 1027.44 1027.47 1027.39 1027.32 1027.28 1027.29 1027.27 1027.28 1027.19 1027.08 1026.91 1026.83 1026.82 1026.70 1026.63 1026.57 1026.47 1026.38 1026.08
1024.36 1024.76 1024.95 1025.25 1025.88 1026.08 1026.21 1026.33 1026.66 1027.02 1027.49 1027.64 1027.99 1028.20 1028.37 1028.41 1028.41 1028.47 1028.42 1028.22 1028.13 1027.97 1028.10 1028.21 1028.14 1028.01 1027.86 1027.73 1027.59 1027.50 1027.44 1027.35 1027.22 1027.06 1026.84 1026.84 1026.78 1026.64 1026.62 1026.54 1026.44 1026.20 1025.92
1024.65 1024.88 1024.95 1025.19 1025.62 1026.34 1026.51 1026.55 1027.03 1027.18 1027.51 1028.09 1028.23 1028.55 1028.72 1028.69 1028.74 1028.72 1028.79 1028.72 1028.67 1028.47 1028.35 1028.69 1028.62 1028.52 1028.41 1028.32 1028.19 1028.01 1027.82 1027.57 1027.34 1027.03 1026.70 1026.53 1026.42 1026.45 1026.45 1026.33 1026.17 1025.89 1025.61
1024.70 1025.13 1025.13 1025.37 1025.72 1026.51 1026.60 1026.79 1027.17 1027.63 1027.72 1028.10 1028.24 1028.64 1028.89 1029.03 1028.91 1028.93 1028.92 1028.84 1028.85 1028.76 1028.56 1028.54 1028.44 1028.57 1028.77 1028.63 1028.45 1028.26 1027.98 1027.73 1027.45 1027.24 1026.91 1026.59 1026.34 1026.23 1026.15 1026.06 1025.86 1025.60 1025.32
1024.75 1024.77 1025.19 1025.68 1026.13 1026.23 1026.58 1027.04 1027.24 1027.63 1028.16 1028.58 1028.37 1028.71 1028.93 1029.08 1029.03 1028.88 1029.01 1028.99 1029.05 1028.96 1028.86 1028.71 1028.57 1028.56 1028.57 1028.87 1028.74 1028.55 1028.22 1027.93 1027.70 1027.46 1027.17 1026.86 1026.53 1026.23 1025.95 1025.68 1025.43 1025.24 1025.07
1024.47 1024.92 1025.33 1025.93 1026.03 1026.28 1026.73 1027.03 1027.37 1027.62 1028.10 1028.39 1027.82 1028.01 1028.01 1028.53 1028.64 1028.73 1028.87 1028.94 1029.18 1029.17 1029.07 1029.05 1028.96 1028.90 1028.79 1028.66 1028.84 1028.82 1028.57 1028.20 1027.89 1027.57 1027.16 1026.86 1026.51 1026.08 1025.70 1025.38 1025.10 1024.93 1024.73
1024.24 1024.97 1025.67 1025.89 1026.13 1026.39 1026.81 1027.23 1027.59 1027.45 1027.17 1027.98 1027.91 1027.45 1027.62 1027.44 1028.11 1028.49 1028.78 1028.90 1029.00 1028.90 1029.00 1029.01 1029.02 1029.04 1028.96 1028.82 1028.76 1028.57 1028.63 1028.37 1028.01 1027.65 1027.25 1026.78 1026.34 1025.83 1025.38 1025.13 1024.85 1024.62 1024.38
1024.25 1024.77 1025.39 1025.80 1026.07 1026.46 1026.81 1027.16 1027.56 1027.52 1027.71 1027.48 1027.81 1027.92 1027.87 1027.83 1027.72 1027.58 1028.32 1028.52 1028.66 1028.62 1028.75 1028.53 1028.57 1028.69 1028.75 1028.59 1028.74 1028.71 1028.55 1028.46 1028.19 1027.81 1027.42 1026.98 1026.51 1025.95 1025.46 1025.02 1024.63 1024.24 1024.26
1024.52 1024.69 1025.04 1025.34 1025.58 1025.84 1026.34 1026.70 1027.76 1027.35 1027.14 1027.09 1026.97 1027.41 1027.83 1028.06 1028.22 1028.00 1027.50 1027.81 1028.24 1028.25 1028.29 1028.41 1028.46 1028.46 1028.62 1028.66 1028.47 1028.52 1028.69 1028.46 1028.15 1027.79 1027.42 1026.97 1026.51 1025.96 1025.41 1024.88 1024.38 1024.02 1023.72
1024.40 1024.75 1024.91 1025.03 1025.36 1025.58 1025.85 1026.21 1026.24 1027.16 1027.05 1026.91 1027.22 1027.39 1027.48 1027.55 1027.50 1027.72 1027.61 1027.65 1027.93 1027.93 1028.10 1028.17 1028.19 1028.23 1028.43 1028.45 1028.56 1028.72 1028.48 1028.20 1027.92 1027.58 1027.14 1026.68 1026.23 1025.80 1025.26 1024.71 1024.18 1023.84 1023.57
1023.60 1024.20 1024.52 1024.82 1025.06 1025.62 1026.10 1025.90 1025.98 1026.65 1026.44 1026.54 1026.98 1027.12 1027.38 1027.51 1027.70 1027.80 1027.87 1027.59 1027.68 1027.67 1027.90 1027.91 1027.79 1027.97 1028.16 1028.29 1028.30 1028.46 1028.12 1028.04 1027.74 1027.37 1026.91 1026.39 1025.94 1025.52 1025.06 1024.54 1024.02 1023.51 1022.96
1023.18 1023.71 1024.18 1024.55 1025.19 1025.66 1025.51 1026.34 1025.77 1025.94 1026.23 1026.55 1026.83 1027.01 1027.16 1027.36 1027.66 1027.77 1027.71 1027.73 1027.40 1027.26 1027.52 1027.59 1027.69 1027.72 1027.92 1027.98 1028.13 1028.18 1027.63 1027.57 1027.40 1026.96 1026.47 1026.00 1025.61 1025.10 1024.65 1024.23 1023.68 1023.14 1022.60
1023.00 1023.81 1024.08 1024.30 1024.67 1025.22 1025.46 1025.86 1025.77 1025.89 1026.21 1026.43 1026.64 1026.89 1027.09 1027.18 1027.44 1027.58 1027.76 1027.75 1027.52 1027.05 1026.52 1026.49 1027.25 1027.53 1027.63 1027.66 1027.74 1027.73 1027.27 1027.00 1026.88 1026.39 1026.00 1025.58 1025.08 1024.64 1024.21 1023.73 1023.20 1022.86 1022.47
1022.61 1023.27 1023.76 1024.51 1024.80 1025.01 1025.35 1025.28 1025.46 1025.67 1025.92 1026.14 1026.40 1026.64 1026.80 1026.89 1027.04 1027.23 1027.35 1027.57 1027.63 1027.25 1026.54 1026.50 1026.80 1027.28 1027.48 1027.46 1027.42 1027.38 1026.90 1026.73 1026.11 1025.87 1025.51 1025.09 1024.61 1024.17 1023.74 1023.25 1022.81 1022.51 1022.17
1022.22 1022.85 1023.39 1023.94 1024.50 1024.73 1024.68 1025.07 1025.20 1025.40 1025.51 1025.66 1026.06 1026.37 1026.38 1026.49 1026.65 1026.83 1027.10 1027.23 1027.16 1027.15 1026.64 1026.27 1026.94 1027.23 1027.33 1027.08 1026.95 1026.78 1026.46 1025.98 1025.32 1025.08 1024.90 1024.52 1024.07 1023.65 1023.28 1022.93 1022.44 1022.02 1021.68
1021.66 1022.42 1022.80 1023.14 1023.35 1023.91 1024.46 1024.85 1025.05 1025.27 1025.38 1025.30 1025.39 1025.70 1025.82 1025.98 1026.09 1026.30 1026.51 1026.57 1026.62 1026.69 1026.72 1026.16 1026.29 1026.84 1026.94 1026.83 1026.73 1026.47 1025.98 1025.61 1025.07 1024.63 1024.37 1023.96 1023.52 1023.11 1022.71 1022.27 1021.83 1021.35 1020.91
1021.40 1022.02 1022.55 1022.98 1023.59 1023.74 1024.18 1024.68 1024.86 1024.98 1025.05 1025.07 1025.04 1025.13 1025.09 1025.36 1025.43 1025.60 1025.88 1026.00 1026.12 1026.37 1026.48 1026.35 1025.95 1026.32 1026.57 1026.48 1026.21 1025.85 1025.43 1025.03 1024.61 1024.27 1023.67 1023.27 1022.91 1022.52 1022.06 1021.61 1021.12 1020.56 1020.11
1021.10 1021.90 1022.68 1023.43 1023.70 1023.93 1024.47 1024.85 1025.06 1024.78 1024.64 1024.61 1024.64 1024.69 1024.50 1024.58 1024.65 1024.89 1025.18 1025.46 1025.68 1025.92 1026.02 1026.01 1025.78 1025.74 1025.82 1025.87 1025.94 1025.39 1024.80 1024.48 1023.95 1023.60 1023.03 1022.76 1022.34 1021.71 1021.19 1020.77 1020.36 1019.83 1019.32
1020.97 1021.65 1022.16 1022.75 1023.76 1023.88 1024.39 1024.53 1024.68 1024.46 1024.17 1024.01 1023.84 1023.77 1023.66 1023.66 1023.94 1024.15 1024.66 1024.85 1025.23 1025.38 1025.52 1025.54 1025.33 1025.25 1025.21 1025.20 1025.21 1025.16 1024.78 1024.18 1023.57 1022.81 1022.33 1021.86 1021.19 1020.57 1019.92 1019.59 1019.21 1018.91 1018.66
1021.34 1021.93 1022.12 1022.41 1023.07 1023.75 1024.02 1024.42 1024.32 1024.00 1023.57 1023.24 1022.79 1022.67 1022.70 1023.27 1023.52 1023.92 1024.31 1024.57 1024.72 1024.86 1025.10 1025.14 1024.95 1024.79 1024.82 1024.95 1025.06 1024.96 1024.63 1023.96 1022.95 1022.28 1022.00 1021.33 1020.67 1019.81 1019.30 1018.81 1018.50 1018.29 1017.94
1021.78 1022.09 1022.61 1022.98 1023.42 1023.41 1023.61 1023.89 1023.66 1023.61 1023.04 1022.48 1022.15 1021.96 1021.97 1022.23 1022.65 1022.99 1023.61 1024.06 1024.51 1024.76 1024.98 1024.91 1024.72 1024.50 1024.51 1024.68 1024.76 1024.60 1024.21 1023.75 1022.95 1022.35 1022.04 1020.81 1020.03 1019.15 1018.62 1018.16 1017.69 1017.43 1017.14
1022.14 1022.41 1022.81 1023.09 1023.28 1023.29 1023.38 1023.58 1023.36 1023.02 1022.41 1021.82 1021.59 1021.39 1021.32 1021.43 1021.81 1022.32 1022.76 1023.13 1023.46 1023.83 1024.14 1024.40 1024.22 1024.09 1024.15 1024.34 1024.46 1024.36 1024.09 1023.49 1022.72 1021.95 1021.40 1020.53 1019.63 1018.86 1018.24 1017.71 1017.13 1016.85 1016.63
1022.36 1022.57 1022.78 1022.90 1022.99 1022.86 1022.90 1022.97 1022.92 1022.38 1021.69 1021.10 1020.85 1020.69 1020.65 1020.73 1021.03 1021.74 1022.17 1022.41 1022.65 1022.91 1023.49 1023.80 1023.89 1023.95 1024.12 1024.26 1024.25 1023.79 1023.30 1022.71 1022.02 1021.32 1020.83 1020.29 1019.33 1018.69 1017.97 1017.11 1016.58 1016.54 1016.27
1022.20 1022.41 1022.49 1022.53 1022.53 1022.44 1022.39 1022.41 1022.24 1021.84 1021.14 1020.54 1020.17 1020.06 1020.17 1020.17 1020.48 1020.98 1021.38 1021.65 1021.81 1021.78 1022.35 1022.81 1022.97 1023.04 1023.25 1023.09 1023.40 1023.33 1022.71 1022.38 1021.92 1021.17 1020.49 1020.69 1019.79 1019.18 1017.72 1016.60 1016.41 1015.80 1015.44
Wind_Speed
6 7 6 6 6 6 6 6 6 7 8 8 7 7 6 6 6 4 4 12 10 6 7 8 8 7 7 8 9 8 9 9 10 10 10 10 11 13 15 16 18 19 19
7 7 6 6 6 5 6 6 6 6 6 5 6 6 6 5 6 5 4 8 15 13 10 8 7 7 7 7 6 6 5 6 8 9 11 6 7 9 10 13 16 18 18
8 8 6 6 6 6 9 7 6 6 5 5 6 5 4 5 5 6 4 5 6 15 14 13 10 9 7 6 6 7 7 7 9 10 12 8 10 11 12 13 15 16 17
9 7 6 6 6 5 5 5 5 5 4 4 4 4 4 4 5 6 5 5 5 4 9 11 10 9 8 7 8 9 10 11 12 13 11 9 11 10 10 13 15 15 16
8 6 6 7 7 5 5 4 3 3 4 4 4 4 4 3 4 4 6 6 6 5 4 10 10 10 9 8 9 10 12 13 14 14 14 11 11 9 12 15 16 16 16
9 7 6 8 6 5 5 4 5 4 3 3 4 4 3 3 3 3 4 3 4 5 4 4 3 4 7 6 7 8 11 13 15 17 18 18 17 16 16 15 16 17 16
9 8 7 7 6 5 5 5 5 4 3 2 4 3 3 3 4 3 2 2 3 3 3 3 2 2 2 5 7 9 11 14 16 17 17 18 18 18 18 18 19 18 18
9 8 8 7 7 6 6 5 4 4 3 2 3 1 3 5 5 5 3 3 1 0 1 2 2 2 2 2 6 10 12 14 16 18 19 20 21 21 21 20 19 20 20
10 9 8 7 7 5 4 4 5 6 6 3 3 1 3 3 1 4 5 3 3 2 2 1 1 3 2 4 5 6 9 11 13 16 18 19 20 21 21 20 21 22 23
10 11 10 8 8 5 6 5 5 5 3 4 3 2 1 1 3 3 4 3 4 4 3 4 3 2 3 4 5 5 9 10 12 15 17 19 20 22 23 23 24 25 24
9 11 11 11 10 8 8 9 6 7 5 3 4 3 3 2 2 4 6 4 3 3 4 4 4 4 4 5 5 6 12 14 16 17 19 21 22 24 25 27 27 28 28
8 10 10 9 9 10 10 8 9 7 5 4 3 4 3 3 3 4 5 6 6 6 5 5 5 4 3 3 4 9 14 17 18 20 21 23 24 25 26 27 28 28 29
9 11 11 10 9 8 8 9 8 8 8 6 6 4 4 4 3 4 5 6 7 4 4 5 5 4 3 3 5 11 16 15 17 19 21 21 22 22 23 24 25 26 26
9 13 11 10 9 7 9 8 7 7 6 5 7 5 4 4 4 5 6 5 7 6 5 9 4 5 4 4 8 13 11 15 17 19 21 21 21 21 21 23 24 25 26
9 10 11 11 9 11 9 9 5 6 5 5 5 6 6 5 5 5 5 6 7 10 9 6 6 3 5 6 8 11 12 15 19 20 20 21 21 22 23 24 23 24 25
11 13 12 7 10 8 10 8 5 5 6 5 5 7 7 6 6 5 6 6 6 8 11 8 7 6 6 7 9 11 12 16 17 18 18 20 21 22 23 24 24 26 26
11 12 10 11 9 7 7 6 6 6 8 8 7 8 9 8 6 6 6 6 7 7 10 9 4 6 9 10 10 10 11 12 11 17 19 21 22 22 23 24 24 24 25
14 11 11 11 12 10 8 7 7 7 9 10 10 9 11 7 10 9 7 9 7 7 8 13 10 7 9 9 10 11 10 9 11 15 19 21 21 20 19 21 22 24 23
11 10 11 12 10 9 7 5 6 9 10 11 11 11 11 10 10 9 9 8 7 6 7 8 10 6 8 8 9 10 10 11 9 16 19 17 17 18 21 21 21 22 22
9 9 8 6 6 5 2 1 8 12 11 11 12 12 12 12 12 11 10 10 8 7 7 8 9 8 8 7 7 8 9 9 10 10 12 12 16 18 19 18 18 19 19
9 8 9 8 5 4 3 4 12 12 12 13 13 13 13 14 14 11 7 9 9 8 7 8 8 8 8 7 9 8 9 10 11 9 8 10 10 10 10 12 13 14 16
6 8 8 8 6 2 4 10 12 11 12 12 13 13 13 13 13 13 14 10 9 9 10 8 8 8 10 8 7 7 9 10 11 8 11 12 10 10 9 9 15 19 18
7 8 6 4 2 6 6 12 10 10 10 11 12 12 11 9 11 11 12 13 12 13 12 9 10 10 9 8 8 9 10 11 12 12 12 12 11 10 9 10 18 18 16
6 4 3 4 6 5 7 11 13 13 12 13 12 13 13 13 13 12 11 11 12 11 13 10 11 10 9 8 8 9 11 13 12 10 10 11 9 10 10 11 16 12 13
3 4 6 5 6 6 10 12 11 11 12 13 11 12 13 14 13 16 11 11 11 11 11 15 14 13 12 13 13 9 9 10 11 11 9 7 8 12 10 10 7 8 14
3 2 3 6 8 11 11 13 11 7 11 9 10 11 13 14 11 17 13 11 11 12 10 10 10 12 13 12 13 11 9 9 10 9 3 7 9 8 7 5 10 9 9
Wind_Direction
130 118 115 116 115 122 120 114 106 95 93 83 78 83 77 73 67 61 60 40 36 46 96 118 106 103 100 80 54 55 52 35 26 20 32 29 23 19 15 11 6 3 1
132 130 133 127 123 130 122 112 96 96 92 91 87 78 81 73 68 68 72 68 47 46 62 66 69 71 87 66 52 46 36 14 5 358 347 12 13 14 9 7 2 355 353
148 141 140 130 127 123 108 105 98 104 101 91 94 91 86 70 69 67 72 70 77 53 54 60 59 48 34 22 10 353 334 338 327 328 332 353 347 350 348 355 352 346 344
150 151 147 129 128 116 117 113 112 100 101 109 119 105 96 86 83 76 71 70 67 69 72 58 51 39 27 8 354 339 334 330 328 321 319 328 319 322 339 339 335 332 331
158 157 144 132 130 123 112 115 101 110 122 132 128 116 88 88 86 89 89 82 73 64 62 65 55 46 36 19 359 340 328 323 318 314 310 308 312 325 325 326 323 320 321
159 155 129 125 123 126 127 127 123 98 98 140 129 121 114 103 114 117 109 105 94 87 83 61 52 68 39 33 5 344 333 329 328 323 321 318 316 314 316 312 311 311 316
157 143 129 129 140 144 132 134 129 129 122 153 157 157 148 137 166 159 160 139 94 76 97 86 70 17 69 47 18 349 336 332 325 318 313 312 310 306 301 302 305 306 310
145 139 140 151 152 137 139 159 172 145 113 189 197 216 223 191 203 198 196 200 184 263 103 100 60 31 353 350 7 347 339 330 320 313 309 304 301 298 299 300 304 307 307
146 145 153 153 140 132 145 158 189 192 171 166 215 236 221 265 253 175 210 224 218 239 297 279 293 11 2 331 323 331 335 326 323 318 314 311 307 303 300 302 302 301 306
153 152 153 148 143 147 152 161 184 186 197 159 150 160 177 292 278 262 190 225 244 265 306 307 286 333 330 322 333 339 350 343 332 324 317 313 309 306 303 301 300 300 297
163 161 159 157 156 160 158 156 159 185 188 165 183 169 191 180 203 266 289 281 261 264 293 286 295 305 314 330 329 349 341 335 326 316 312 307 304 301 299 298 297 296 299
168 173 168 163 161 161 165 168 164 190 178 149 171 179 212 235 243 258 273 284 288 289 294 280 270 282 298 310 323 331 324 319 318 311 307 303 300 298 296 295 297 297 292
182 182 173 170 172 168 180 173 158 184 174 168 182 191 204 226 242 254 266 281 284 293 271 265 274 272 260 280 309 327 318 317 313 311 307 303 302 301 298 294 291 289 288
179 174 182 172 162 173 169 205 175 183 166 176 193 209 226 229 224 238 255 279 279 271 264 279 275 260 259 281 319 318 308 308 307 305 303 304 301 301 301 298 293 292 290
177 176 176 176 166 189 190 191 196 173 184 196 214 225 234 240 236 236 236 241 268 290 297 306 281 255 261 291 312 308 306 306 303 302 301 301 299 300 297 295 295 299 298
175 176 180 163 201 183 196 186 179 192 199 207 222 227 228 236 234 224 230 235 244 268 289 303 287 291 288 295 302 302 302 301 299 299 300 300 297 293 295 294 295 293 290
168 181 173 189 187 181 172 194 200 205 210 213 216 230 234 224 226 220 226 236 242 249 272 290 280 297 284 294 301 304 299 299 296 301 302 299 296 292 295 291 288 288 287
179 182 176 181 175 177 186 202 217 222 220 219 225 223 234 218 224 227 229 234 241 248 266 282 297 289 286 302 302 301 300 298 301 302 299 296 298 292 291 290 287 287 287
167 172 181 178 181 175 190 208 230 240 232 233 234 229 233 222 228 227 228 240 242 242 245 266 285 286 284 293 301 300 301 301 297 301 294 292 288 291 291 292 289 287 285
162 167 172 174 156 131 126 287 272 260 245 243 244 240 236 227 231 230 227 236 243 239 247 260 273 281 287 299 296 301 306 309 311 305 291 282 291 291 289 288 289 286 286
155 160 145 139 125 105 208 238 260 261 258 252 246 242 236 229 225 226 223 237 229 236 249 260 269 276 283 298 303 312 300 311 309 302 302 305 303 299 294 291 289 291 296
119 142 131 138 140 227 247 257 258 273 268 261 260 251 239 219 216 207 209 225 232 235 246 257 264 271 284 297 294 299 305 308 313 311 311 304 300 296 295 297 307 300 298
116 114 111 71 315 288 259 275 285 289 280 273 266 258 242 222 211 216 210 211 206 214 239 251 254 265 284 284 290 290 299 304 303 309 305 301 302 294 301 304 308 307 291
91 92 85 240 270 273 278 272 279 289 282 276 267 258 245 228 210 210 214 217 223 220 220 222 244 261 271 265 272 285 295 294 294 295 297 293 303 304 309 307 305 306 290
136 193 231 254 252 265 264 270 287 291 280 277 271 257 242 231 206 199 205 215 225 233 225 232 242 255 252 250 257 287 287 302 303 307 309 294 305 312 310 297 304 311 291
245 265 258 247 255 271 275 268 273 283 280 275 272 258 227 229 201 193 206 214 226 238 226 223 227 236 237 243 248 255 280 291 298 307 336 314 316 320 311 302 324 313 315